Weather observations for the past three days for
Grissom Air Force Base / Peru
Imperial (Metric)
Date Time (edt) Wind (mph) Vis. (mi.) Weather Sky Cond. Temperature (ºF) Relative Humidity Wind Chill (°F) Heat Index (°F) Pressure Precipitation (in)
Air Dwpt 6 hour altimeter (in) sea level (mb) 1 hr 3 hr 6 hr
Max. Min.
19 07:55 Calm 10.00 Fair CLR 61.9 57 61.9 56.3 84% 30.2 1022.7
19 06:55 NE 3 10.00 Fair CLR 57.9 54.3 88% 30.17 1021.7
19 05:55 Calm 10.00 Fair CLR 56.5 54 91% 30.17 1021.7
19 04:55 NE 5 10.00 Fair CLR 57.6 54.7 90% 30.16 1021.4
19 03:55 NE 3 10.00 Fair CLR 57.4 53.8 88% 30.16 1021.3
19 02:55 NE 5 10.00 Fair CLR 58.3 54.5 87% 30.16 1021.3
19 01:55 N 3 10.00 Fair CLR 59.7 54.9 70.7 59.7 84% 30.17 1021.7
19 00:55 N 5 10.00 Fair CLR 62.1 55.4 79% 30.16 1021.3
18 23:55 N 5 10.00 Fair CLR 62.8 55.8 78% 30.16 1021.3
18 22:55 N 6 10.00 Fair CLR 64.2 56.1 75% 30.15 1021.0
18 21:55 N 5 10.00 Fair CLR 66 56.3 71% 30.14 1020.7
18 20:55 N 6 10.00 Partly Cloudy SCT050 68.9 55.4 62% 30.13 1020.3
18 19:55 N 6 10.00 Fair CLR 70.9 54.3 74.3 70.9 56% 30.13 1020.3
18 18:55 N 8 10.00 Mostly Cloudy BKN050 71.8 53.2 52% 30.13 1020.4
18 17:55 N 12 10.00 Partly Cloudy SCT045 72.1 54 53% 30.13 1020.3
18 16:55 N 8 10.00 Partly Cloudy SCT045 72.9 54.1 52% 30.14 1020.7
18 15:55 N 12 10.00 Partly Cloudy SCT042 73.2 55.6 54% 30.14 1020.7
18 14:55 N 12 10.00 Partly Cloudy SCT041 73.6 55.4 53% 30.14 1020.6
18 13:55 N 8 10.00 Partly Cloudy SCT038 72.1 55 72.1 61.5 55% 30.15 1020.9
18 12:55 N 9 10.00 Mostly Cloudy BKN036 70.2 55.2 59% 30.15 1020.9
18 11:55 N 10 10.00 A Few Clouds FEW032 69.8 54.9 59% 30.15 1020.9
18 10:55 N 12 10.00 Fair CLR 68 54 61% 30.15 1020.9
18 09:55 N 12 10.00 Partly Cloudy SCT022 66.4 54.7 66% 30.14 1020.6
18 08:55 N 7 10.00 Fair CLR 63.9 55.8 75% 30.13 1020.3
18 07:55 N 6 10.00 Fair CLR 61.3 55 63.5 58.3 80% 30.12 1019.9
18 06:55 N 8 10.00 Fair CLR 58.8 54.3 85% 30.1 1019.2
18 05:55 N 6 10.00 Fair CLR 59.4 54.1 83% 30.08 1018.5
18 04:55 N 8 10.00 Fair CLR 60.1 54.5 82% 30.07 1018.1
18 03:55 N 7 10.00 Fair CLR 60.4 54.9 82% 30.06 1017.7
18 02:55 N 7 10.00 Fair CLR 62.2 54.9 77% 30.06 1017.7
18 01:55 N 7 10.00 Fair CLR 63.1 54.3 75.7 63.1 73% 30.07 1018.0
18 00:55 N 6 10.00 Fair CLR 64.6 55.4 72% 30.06 1017.7
17 23:55 N 9 10.00 Fair CLR 66.6 54.9 66% 30.05 1017.3
17 22:55 N 8 10.00 Fair CLR 67.8 55.9 66% 30.03 1016.7
17 21:55 N 7 10.00 Fair CLR 70 56.3 62% 30.01 1016.0
17 20:55 N 9 10.00 Fair CLR 72.7 57.6 59% 29.99 1015.3
17 19:55 N 10 10.00 Fair CLR 75.9 58.6 84.7 75.9 55% 78 29.97 1014.6
17 18:55 N 14 10.00 Fair CLR 78.4 59.4 52% 80 29.94 1013.5
17 17:55 N 15 10.00 Fair CLR 80.4 58.3 47% 81 29.93 1013.1
17 16:55 N 14 G 20 10.00 A Few Clouds FEW045 81.9 61.9 51% 83 29.92 1012.8
17 15:55 N 13 10.00 Partly Cloudy FEW065 FEW075 SCT210 83.1 63.1 51% 84 29.92 1012.8
17 14:55 NW 14 10.00 Light Rain BKN039 BKN060 79 67.1 67% 81 29.92 1012.8
17 13:55 N 10 10.00 A Few Clouds FEW190 83.5 67.1 83.5 72.7 58% 86 29.92 1012.7
17 10:55 Calm 10.00 Mostly Cloudy SCT008 SCT012 BKN021 76.1 70.9 84% 77 29.91 1012.5
17 09:55 Calm 10.00 Overcast OVC005 73.8 70.5 90% 29.9 1012.2
17 08:55 W 3 10.00 Overcast OVC005 73.4 70.5 91% 29.89 1011.8
17 07:55 NW 5 10.00 Overcast OVC003 72.7 70.5 73 71.6 93% 29.89 1011.8
17 06:55 Calm 10.00 Overcast OVC006 72.1 69.3 91% 29.88 1011.5
17 05:55 W 5 10.00 Overcast OVC009 72.1 68.7 89% 29.87 1011.1
17 04:55 NW 5 10.00 Overcast OVC160 72.1 68.7 89% 29.85 1010.4
17 03:55 W 7 10.00 Overcast OVC160 72.5 68.7 88% 29.84 1010.0
17 02:55 W 5 10.00 Overcast OVC130 72.5 68.7 88% 29.85 1010.3
17 01:55 W 9 10.00 Overcast BKN130 OVC190 73.2 69.1 78.4 73 87% 29.87 1011.0
17 00:55 W 14 10.00 Mostly Cloudy SCT140 BKN200 74.1 68.9 84% 29.88 1011.4
16 23:55 SW 10 10.00 Overcast OVC020 74.8 71.1 88% 29.88 1011.4
16 22:55 SW 12 10.00 Mostly Cloudy SCT013 BKN170 74.3 71.8 92% 29.87 1011.1
16 21:55 Calm 10.00 Overcast OVC170 73.8 70.9 91% 29.83 1009.8
16 20:55 W 7 10.00 Partly Cloudy SCT170 76.3 71.1 84% 77 29.82 1009.4
16 19:55 W 12 10.00 A Few Clouds FEW034 78.4 70.9 84.7 78.1 78% 81 29.82 1009.4
16 18:55 W 13 10.00 Mostly Cloudy FEW023 SCT029 BKN039 BKN170 BKN210 79 71.1 77% 82 29.83 1009.8
16 17:55 W 12 10.00 Overcast OVC023 79 71.1 77% 82 29.84 1010.2
16 16:55 W 15 10.00 Overcast BKN024 OVC045 80.6 72.3 76% 85 29.84 1010.1
16 15:55 W 15 10.00 Overcast SCT024 BKN033 BKN043 OVC050 81 72.1 75% 85 29.85 1010.5
16 14:55 W 17 10.00 Mostly Cloudy FEW027 SCT110 SCT140 BKN160 BKN190 84 72.3 68% 90 29.83 1009.7
16 13:55 W 14 10.00 Mostly Cloudy FEW025 SCT043 SCT150 BKN170 82.4 72 82.4 70 71% 87 29.84 1010.0
16 12:55 W 17 10.00 Mostly Cloudy BKN023 BKN200 80.6 70.7 72% 84 29.84 1010.1
16 11:55 SW 17 10.00 A Few Clouds FEW210 79 69.1 72% 82 29.84 1009.9
16 10:55 SW 16 10.00 A Few Clouds FEW170 FEW190 77.7 68.4 73% 80 29.84 1009.9
16 09:55 W 14 10.00 Fair CLR 76.6 68.9 77% 78 29.83 1009.6
16 08:55 W 9 10.00 Fair CLR 73.2 67.6 83% 29.82 1009.3
Date Time (edt) Wind (mph) Vis. (mi.) Weather Sky Cond. Air Dwpt Max. Min. Relative Humidity Wind Chill (°F) Heat Index (°F) altimeter (in) sea level (mb) 1 hr 3 hr 6 hr
6 hour
Temperature (ºF) Pressure Precipitation (in)